User: anonymous   Login
Location: Cheyres
(46.8153°N, 6.7877°E)
Time: 23:29:29
(UTC+00:00)
Language:

Cosmos 1703 Rocket - Orbit

View from above orbital plane
View from above orbital plane
View from above satellite
View from above satellite

Ground track
Ground track

The orbit data is extracted from the following two-line orbital elements,

1 16263U 85108B   21204.39730352  .00000079  00000-0  66471-5 0  9996
2 16263  82.5052 149.6159 0021642  96.1304  26.9849 14.83148630905218
Epoch (UTC): 23 July 2021 09:32:07
Eccentricity: 0.0021642
inclination: 82.5052°
perigee height: 604 km
apogee height: 634 km
right ascension of ascending node: 149.6159°
argument of perigee: 96.1304°
revolutions per day: 14.83148630
mean anomaly at epoch: 26.9849°
orbit number at epoch: 90521

The dashed part of the orbit path shows where the satellite is in the earth's shadow,  

DLR